DN9EM-2 Weather Reports


Display with metric or nautical units.
time (UTC)temp
F
wind
direction
speed
MPH
gust
MPH
rain 1hr
in
rain 24hr
in
rain mn
in
humidity
%
barometer
mb
20260506113109 58 232 2.0 7.0 0.00 0.00 0.00 43 1010.5
20260506112101 58 12 1.0 4.0 0.00 0.00 0.00 45 1010.5
20260506111058 57 256 1.0 6.0 0.00 0.00 0.00 45 1010.6
20260506110056 57 170 2.0 4.0 0.00 0.00 0.00 46 1010.6
20260506105048 56 353 2.0 7.0 0.00 0.00 0.00 46 1010.6
20260506104045 56 233 2.0 9.0 0.00 0.00 0.00 46 1010.6
20260506103037 56 9 1.0 6.0 0.00 0.00 0.00 47 1010.5
20260506102039 56 169 2.0 6.0 0.00 0.00 0.00 47 1010.6
20260506101031 56 305 1.0 4.0 0.00 0.00 0.00 49 1010.5
20260506100023 56 222 2.0 7.0 0.00 0.00 0.00 48 1010.5
20260506095020 55 149 2.0 6.0 0.00 0.00 0.00 48 1010.4
20260506094112 55 83 1.0 6.0 0.00 0.00 0.00 49 1010.4
20260506093110 55 339 2.0 6.0 0.00 0.00 0.00 48 1010.5
20260506092103 54 23 2.0 6.0 0.00 0.00 0.00 49 1010.5
20260506091058 54 25 1.0 4.0 0.00 0.00 0.00 51 1010.4
20260506090056 54 87 1.0 6.0 0.00 0.00 0.00 52 1010.4
20260506085047 54 13 1.0 4.0 0.00 0.00 0.00 52 1010.2
20260506084044 53 344 2.0 6.0 0.00 0.00 0.00 52 1010.3
20260506083036 53 210 1.0 4.0 0.00 0.00 0.00 53 1010.2
20260506082033 53 342 2.0 6.0 0.00 0.00 0.00 53 1010.2
20260506081025 53 82 1.0 4.0 0.00 0.00 0.00 55 1010.1
20260506073109 51 186 1.0 4.0 0.00 0.00 0.00 55 1010.0
20260506071058 51 14 1.0 4.0 0.00 0.00 0.00 58 1009.8
20260506062034 49 223 1.0 4.0 0.00 0.00 0.00 62 1009.5
20260506061032 49 43 1.0 7.0 0.00 0.00 0.00 62 1009.5
20260506051100 48 203 0.0 2.0 0.00 0.00 0.00 69 1009.4
20260506045049 47 42 1.0 4.0 0.00 0.00 0.00 74 1009.3
20260506044046 46 61 0.0 4.0 0.00 0.00 0.00 79 1009.3
20260506043044 45 225 0.0 2.0 0.00 0.00 0.00 82 1009.3
20260506042036 45 140 0.0 2.0 0.00 0.00 0.00 83 1009.4
20260506041033 45 194 1.0 2.0 0.00 0.00 0.00 83 1009.3
20260506040026 45 304 0.0 2.0 0.00 0.00 0.00 84 1009.2
20260506035022 44 154 1.0 2.0 0.00 0.00 0.00 84 1009.2
20260506034020 44 188 0.0 2.0 0.00 0.00 0.00 84 1009.3
20260506033111 45 0.0 0.0 0.00 0.00 0.00 85 1009.3
20260506032109 45 203 0.0 2.0 0.00 0.00 0.00 86 1009.3
20260506031100 45 180 0.0 2.0 0.00 0.00 0.00 86 1009.4
20260506030057 45 233 0.0 2.0 0.00 0.00 0.00 86 1009.5
20260506025049 45 225 0.0 2.0 0.00 0.00 0.00 85 1009.6
20260506024046 44 182 1.0 4.0 0.00 0.00 0.00 86 1009.6
20260506023044 44 195 0.0 2.0 0.00 0.00 0.00 86 1009.8
20260506022035 45 0.0 2.0 0.00 0.00 0.00 85 1009.8
20260506021033 45 169 0.0 2.0 0.00 0.00 0.00 84 1009.9
20260506020024 45 135 0.0 2.0 0.00 0.00 0.00 84 1010.1
20260506015022 45 203 0.0 4.0 0.00 0.00 0.00 83 1010.1
20260506014119 46 0.0 2.0 0.00 0.00 0.00 82 1010.1
20260506013110 46 0.0 0.0 0.00 0.00 0.00 81 1010.1
20260506012108 47 0.0 0.0 0.00 0.00 0.00 81 1010.0
20260506011059 47 0.0 0.0 0.00 0.00 0.00 81 1010.1
20260506010057 47 0.0 0.0 0.00 0.00 0.00 82 1010.2
20260506005048 46 0.0 0.0 0.00 0.00 0.00 83 1010.3
20260506004045 46 0.0 0.0 0.00 0.00 0.00 83 1010.4
20260506003037 46 0.0 0.0 0.00 0.00 0.00 83 1010.5
20260506002034 46 0.0 0.0 0.00 0.00 0.00 82 1010.6
20260506001032 47 0.0 2.0 0.00 0.00 0.00 81 1010.6
20260506000024 47 0.0 2.0 0.00 0.00 0.00 81 1010.7
20260505235021 47 0.0 0.0 0.00 0.00 0.00 81 1010.7
20260505234113 47 0.0 0.0 0.00 0.00 0.00 80 1010.6
20260505233110 47 0.0 0.0 0.00 0.00 0.00 79 1010.7
20260505232108 48 0.0 0.0 0.00 0.00 0.00 78 1010.7
20260505231100 48 0.0 0.0 0.00 0.00 0.00 78 1010.7
20260505230057 48 0.0 2.0 0.00 0.00 0.00 78 1010.7
20260505225049 48 0.0 2.0 0.00 0.00 0.00 78 1010.6
20260505224046 48 0.0 2.0 0.00 0.00 0.00 77 1010.8
20260505223044 48 0.0 2.0 0.00 0.00 0.00 77 1010.8
20260505222036 48 158 0.0 2.0 0.00 0.00 0.00 76 1010.8
20260505221033 48 0.0 0.0 0.00 0.00 0.00 76 1010.9
20260505220025 48 158 0.0 2.0 0.00 0.00 0.00 75 1011.1
20260505215022 49 0.0 2.0 0.00 0.00 0.00 75 1011.0
20260505214020 49 315 0.0 2.0 0.00 0.00 0.00 74 1011.2
20260505213112 49 180 0.0 2.0 0.00 0.00 0.00 74 1011.3
20260505212109 49 0 0.0 2.0 0.00 0.00 0.00 72 1011.3
20260505211101 50 0.0 2.0 0.00 0.00 0.00 72 1011.2
20260505210059 50 0 0.0 4.0 0.00 0.00 0.00 71 1011.2
20260505205056 50 225 0.0 2.0 0.00 0.00 0.00 69 1011.3
20260505204048 50 203 0.0 2.0 0.00 0.00 0.00 69 1011.3
20260505203045 50 0.0 0.0 0.00 0.00 0.00 69 1011.2
20260505202036 51 0.0 0.0 0.00 0.00 0.00 69 1011.1
20260505201034 51 0.0 2.0 0.00 0.00 0.00 68 1011.2
20260505200031 52 0.0 2.0 0.00 0.00 0.00 67 1011.2
20260505195025 52 0.0 0.0 0.00 0.00 0.00 66 1011.2
20260505194020 52 0.0 0.0 0.00 0.00 0.00 67 1011.3
20260505193042 53 0.0 0.0 0.00 0.00 0.00 66 1011.2
20260505192039 53 0.0 2.0 0.00 0.00 0.00 66 1011.1
20260505191036 54 0.0 2.0 0.00 0.00 0.00 65 1011.0
20260505190033 54 0.0 0.0 0.00 0.00 0.00 65 1011.1
20260505185031 55 0 0.0 2.0 0.00 0.00 0.00 65 1011.1
20260505184028 55 338 0.0 2.0 0.00 0.00 0.00 65 1011.1
20260505183026 55 0.0 2.0 0.00 0.00 0.00 65 1011.2
20260505182023 55 338 0.0 2.0 0.00 0.00 0.00 64 1011.2
20260505181020 56 0.0 2.0 0.00 0.00 0.00 65 1011.2
20260505180018 56 212 0.0 2.0 0.00 0.00 0.00 63 1011.3
20260505175015 57 11 1.0 6.0 0.00 0.00 0.00 63 1011.3
20260505174113 57 338 0.0 2.0 0.00 0.00 0.00 63 1011.3
20260505173110 57 55 0.0 4.0 0.00 0.00 0.00 63 1011.4
20260505172108 57 45 0.0 2.0 0.00 0.00 0.00 64 1011.5
20260505171105 57 315 0.0 2.0 0.00 0.00 0.00 65 1011.6
20260505165059 57 109 0.0 2.0 0.00 0.00 0.00 64 1011.6
20260505164057 57 122 1.0 2.0 0.00 0.00 0.00 64 1011.8
20260505163054 57 102 1.0 4.0 0.00 0.00 0.00 64 1011.8
20260505162051 57 175 1.0 4.0 0.00 0.00 0.00 65 1011.9
20260505161049 57 23 0.0 2.0 0.00 0.00 0.00 65 1011.9
20260505153038 58 326 1.0 4.0 0.00 0.00 0.00 65 1012.1
20260505152036 58 311 1.0 2.0 0.00 0.00 0.00 65 1012.3
20260505151033 58 327 0.0 4.0 0.00 0.00 0.00 64 1012.3
20260505124054 59 293 0.0 2.0 0.00 0.00 0.00 66 1012.7
20260505122049 59 0.0 2.0 0.00 0.00 0.00 65 1012.7
20260505121046 59 338 0.0 2.0 0.00 0.00 0.00 66 1012.8
20260505120043 58 346 1.0 2.0 0.00 0.00 0.00 65 1012.9
20260505115041 58 293 0.0 4.0 0.00 0.00 0.00 66 1012.8
20260505114038 59 0.0 2.0 0.00 0.00 0.00 65 1012.8